Wind_Speed
25 26 26 26 26 26 25 25 24 23 22 21 19 17 16 16 16 16 18 20 22 25 27 29 31 33 36 38 39 39 40 40 39 39 40 39 38 38 39 40 40 39 37
25 25 26 26 26 26 26 27 26 26 24 22 20 19 17 15 14 14 16 17 19 21 24 27 29 32 35 36 38 39 39 40 41 40 41 40 39 39 39 38 39 38 37
24 25 25 26 26 26 27 27 27 27 26 24 22 20 18 17 15 14 14 15 16 18 21 24 27 29 32 35 36 38 39 40 40 40 41 41 41 40 40 40 39 38 38
23 24 25 25 26 26 27 27 28 28 26 25 23 22 20 18 16 14 14 14 14 16 18 21 23 27 29 32 33 35 38 39 39 40 41 41 41 42 41 41 40 39 38
23 24 24 25 26 26 26 27 27 28 27 26 24 23 21 19 17 16 14 13 12 13 16 18 21 24 26 28 31 33 35 37 38 39 40 41 41 42 42 41 40 40 40
23 24 24 25 25 26 26 27 27 27 27 26 25 24 23 21 19 17 15 13 11 11 13 16 18 21 24 26 28 31 33 34 36 38 39 40 40 40 41 41 41 41 40
23 24 24 25 25 26 26 27 27 27 27 26 26 25 24 23 20 18 15 13 11 11 12 14 16 18 21 24 26 29 30 32 34 36 37 38 39 41 40 40 41 42 42
24 24 24 25 25 25 26 26 27 27 27 26 26 25 25 24 23 20 16 14 12 11 11 12 14 16 18 20 22 25 28 30 32 34 34 35 37 39 40 40 41 41 42
25 25 25 25 26 26 26 26 26 27 27 27 26 25 25 24 23 21 18 15 13 11 10 10 11 12 14 17 19 22 25 27 30 32 33 34 35 36 37 38 39 40 40
26 26 26 26 26 26 26 26 26 26 26 27 27 26 25 24 23 21 19 16 14 12 10 9 10 10 12 14 17 19 22 24 26 29 31 32 34 35 35 36 37 38 38
27 27 27 27 27 26 26 26 26 26 26 26 26 26 25 24 23 21 19 17 16 13 11 9 9 10 12 13 15 17 19 22 24 26 29 31 32 33 35 35 34 35 36
28 27 27 27 27 27 26 26 26 26 26 26 25 25 25 24 23 22 20 18 17 15 13 11 10 10 11 11 13 15 17 19 22 24 26 28 30 31 33 33 33 34 35
28 28 27 27 27 27 27 27 26 26 25 25 25 25 25 24 23 22 20 19 17 16 14 12 11 10 10 10 11 13 15 17 19 21 24 25 27 29 30 32 32 33 34
29 28 28 28 27 28 28 27 27 27 26 25 25 24 24 24 23 22 20 19 18 17 15 13 12 11 11 11 11 12 13 15 17 19 20 22 24 27 28 29 31 32 33
29 29 29 29 28 28 28 28 28 28 27 27 26 25 25 24 24 23 22 20 19 18 16 14 13 12 12 11 11 12 12 14 15 18 19 20 22 24 26 27 28 29 30
29 29 29 29 29 29 29 28 29 29 29 28 28 27 26 26 25 24 23 22 20 19 18 16 15 14 13 13 12 12 12 13 14 16 17 18 20 21 22 24 25 26 27
30 30 30 30 30 30 29 29 29 29 30 30 30 29 29 28 27 26 25 24 23 21 20 18 18 17 16 15 14 14 13 13 13 14 16 18 19 20 21 22 24 25 27
32 31 31 31 31 31 30 30 30 30 30 30 30 30 30 30 29 29 28 27 25 24 23 21 20 19 18 17 16 15 15 14 14 14 15 17 18 19 21 23 24 24 26
33 32 32 31 31 31 31 32 32 32 32 31 31 31 31 31 31 31 30 29 28 27 26 24 23 21 20 19 18 17 17 16 16 16 16 16 17 18 19 21 23 24 25
33 33 32 32 32 32 33 33 34 34 34 34 34 34 33 33 33 33 33 32 31 31 30 28 27 25 23 21 20 20 19 18 18 18 18 18 18 18 20 21 22 24 25
34 34 34 34 34 35 35 36 36 36 36 36 37 37 37 37 36 36 36 36 35 34 34 32 31 29 28 26 24 23 22 21 20 20 19 19 20 20 21 22 22 23 24
36 35 35 35 36 37 38 38 39 39 39 40 40 40 40 40 40 40 40 40 39 39 38 37 35 34 33 30 29 28 26 25 24 24 22 21 21 21 21 22 24 25 26
37 37 37 38 38 39 40 41 42 42 43 43 43 43 44 44 44 44 44 43 43 43 42 42 40 39 38 36 34 33 32 30 29 28 27 26 25 25 24 25 25 26 27
39 39 40 40 41 42 43 44 45 45 46 46 47 47 47 47 47 47 47 47 46 47 46 46 45 44 43 41 40 38 36 35 34 33 32 30 29 28 27 27 27 27 27
41 41 42 43 44 45 46 47 48 48 49 50 50 50 51 51 50 50 50 49 49 50 50 50 50 49 48 47 45 43 41 39 39 38 37 35 34 32 31 30 30 29 29
42 43 44 46 47 48 49 50 51 52 53 53 54 54 54 54 54 54 53 53 52 52 52 53 53 52 51 51 50 48 47 45 43 42 42 40 38 37 35 34 34 33 32
Wind_Direction
10 11 11 11 10 9 7 6 3 358 352 347 342 334 325 313 298 283 272 262 254 249 245 242 239 236 235 236 236 236 234 233 233 234 233 233 235 235 235 237 237 238 239
8 8 8 8 8 8 7 6 4 2 359 354 349 343 336 327 313 295 281 270 260 252 246 242 239 237 236 236 237 237 236 236 236 235 235 234 233 235 236 237 237 239 240
5 6 6 5 5 5 5 4 4 2 1 359 355 350 344 336 326 311 294 281 268 256 248 243 241 239 238 236 237 238 238 238 238 237 236 236 235 235 235 236 238 238 239
358 359 1 2 2 2 2 3 2 2 1 360 358 355 351 344 338 328 314 295 277 262 252 245 242 240 239 238 238 238 238 238 238 239 239 238 238 237 236 236 238 237 238
353 354 356 357 358 359 360 0 1 1 1 0 359 357 355 351 344 337 329 315 291 269 257 251 246 243 242 240 239 238 238 238 237 238 238 239 240 240 238 237 238 238 240
350 351 352 353 354 356 357 358 359 360 0 0 360 359 357 354 349 342 335 325 306 281 264 257 252 248 244 242 241 240 240 239 237 237 237 238 240 240 239 239 238 238 239
346 347 348 350 351 352 354 355 356 357 358 358 358 358 357 356 353 348 341 332 319 297 279 267 260 254 248 244 242 240 240 239 238 237 238 238 240 240 240 240 240 239 239
340 342 343 344 346 347 349 351 353 354 355 356 356 356 356 356 355 350 347 341 328 311 294 280 270 260 252 246 243 241 240 240 240 239 237 237 237 239 240 240 241 240 240
336 337 338 339 341 343 344 346 349 350 352 354 355 356 355 355 356 355 351 347 339 325 309 293 279 267 257 250 247 244 242 240 239 238 239 239 239 239 240 241 241 240 240
331 333 335 336 338 339 340 341 343 346 348 350 351 353 354 353 353 354 353 349 345 337 322 306 293 281 268 259 253 249 244 242 241 240 239 239 239 239 239 240 240 239 239
328 329 330 332 333 334 336 337 339 341 343 345 347 349 351 352 353 353 353 351 349 344 335 320 304 293 281 269 260 254 248 244 242 242 241 240 240 239 237 239 239 239 239
324 325 326 328 329 330 332 333 335 336 338 340 342 344 347 349 350 351 351 350 349 346 340 331 317 305 293 281 266 260 257 250 245 244 244 243 243 241 240 238 238 238 238
320 321 322 324 325 327 328 329 330 331 333 334 336 338 341 343 345 347 347 347 345 343 338 332 321 313 305 292 277 269 264 257 252 249 248 246 243 241 239 238 237 237 237
317 318 319 320 322 323 324 326 327 327 328 329 330 332 334 336 338 341 341 341 341 339 334 329 324 318 310 301 287 276 270 263 257 254 251 247 244 242 239 237 235 236 238
314 315 315 316 318 319 321 322 323 323 323 325 325 326 327 328 329 332 334 334 333 332 330 326 323 316 311 306 297 287 277 269 262 257 252 246 243 242 240 238 237 237 236
312 312 313 314 314 315 317 318 319 320 320 320 320 320 321 321 321 322 324 326 326 326 324 318 314 313 310 305 299 293 287 279 267 259 253 248 245 243 240 236 235 234 231
310 310 310 310 311 312 313 313 314 315 315 315 315 315 314 315 315 315 315 315 316 316 316 312 307 305 303 299 296 291 287 281 272 265 256 250 247 243 239 237 235 234 233
309 309 308 308 308 309 310 311 311 311 311 311 311 311 310 310 310 309 309 308 307 307 306 306 304 300 297 294 291 287 283 278 274 268 259 253 248 246 243 238 236 235 235
306 306 307 307 307 308 309 309 310 310 309 308 307 307 307 306 305 304 303 302 301 300 299 298 297 295 292 289 287 284 280 275 270 267 263 256 252 247 242 238 238 237 237
304 305 305 305 305 306 307 307 308 308 307 306 305 304 303 302 301 299 298 297 295 294 293 291 289 287 285 282 280 278 276 272 268 264 262 258 255 251 247 241 240 239 235
302 302 303 304 304 305 305 306 306 306 306 305 304 303 301 300 298 296 294 292 290 288 287 286 284 282 279 276 273 272 270 266 263 262 260 255 252 248 244 240 237 235 233
300 301 301 302 303 304 305 305 305 305 305 304 303 302 301 299 297 295 292 290 287 285 282 281 279 277 274 271 269 266 264 261 258 256 255 253 250 247 244 242 239 237 235
299 300 301 302 303 304 305 305 305 305 305 304 303 302 300 298 296 294 291 288 285 282 279 277 274 272 269 266 264 262 260 257 254 252 251 248 246 245 244 242 240 238 236
299 299 300 302 303 304 304 305 305 305 304 304 303 302 301 299 297 294 291 288 284 280 277 274 271 268 266 263 259 257 256 254 251 249 247 245 244 243 242 240 238 236 236
299 300 301 302 303 304 304 305 305 305 305 304 303 302 301 300 298 295 292 289 285 281 276 272 268 265 262 259 257 254 252 250 248 246 244 243 242 240 239 237 236 236 235
299 300 302 303 304 305 305 306 306 306 306 305 304 303 302 301 299 296 294 290 287 282 277 272 267 263 260 257 253 251 249 246 245 243 242 240 239 238 236 235 235 234 234
Height
5807 5802 5797 5792 5788 5783 5778 5773 5768 5764 5759 5755 5751 5748 5744 5742 5740 5739 5739 5739 5741 5743 5746 5749 5753 5758 5763 5767 5772 5777 5782 5788 5793 5798 5803 5808 5813 5817 5821 5826 5830 5834 5838
5808 5803 5798 5793 5788 5783 5778 5773 5768 5763 5757 5753 5748 5744 5741 5738 5735 5734 5733 5733 5734 5736 5738 5741 5745 5749 5754 5758 5763 5768 5773 5779 5784 5789 5794 5798 5804 5808 5813 5817 5821 5825 5829
5808 5803 5799 5794 5789 5783 5778 5773 5767 5762 5757 5751 5746 5742 5738 5735 5732 5730 5729 5728 5728 5730 5732 5734 5737 5741 5745 5750 5754 5759 5764 5769 5774 5779 5784 5789 5794 5799 5803 5808 5812 5816 5820
5808 5804 5799 5794 5789 5783 5778 5773 5767 5761 5756 5750 5745 5741 5736 5733 5730 5727 5725 5723 5723 5724 5726 5728 5731 5734 5738 5741 5746 5750 5755 5760 5764 5770 5774 5780 5785 5789 5794 5799 5803 5807 5811
5807 5803 5798 5793 5788 5783 5778 5773 5767 5761 5755 5750 5745 5740 5735 5731 5728 5725 5722 5720 5719 5719 5720 5722 5725 5728 5730 5733 5737 5741 5745 5750 5755 5760 5765 5770 5775 5779 5785 5789 5793 5798 5801
5806 5802 5797 5793 5788 5783 5778 5772 5767 5761 5755 5750 5745 5739 5735 5730 5726 5723 5720 5717 5716 5716 5716 5718 5719 5721 5723 5726 5729 5733 5737 5741 5746 5750 5755 5760 5765 5770 5774 5779 5784 5788 5793
5805 5800 5796 5791 5787 5782 5777 5772 5766 5761 5755 5750 5744 5739 5734 5729 5725 5721 5718 5715 5714 5713 5713 5713 5714 5715 5717 5719 5722 5725 5729 5732 5736 5741 5746 5751 5756 5761 5765 5769 5773 5778 5783
5803 5799 5794 5790 5785 5781 5776 5771 5766 5760 5755 5750 5744 5739 5734 5729 5724 5720 5716 5713 5712 5710 5709 5709 5709 5710 5711 5713 5715 5718 5721 5724 5728 5732 5737 5741 5745 5750 5754 5759 5763 5767 5772
5801 5796 5792 5788 5784 5779 5774 5770 5765 5760 5755 5749 5744 5738 5733 5728 5723 5719 5715 5712 5710 5707 5706 5705 5705 5705 5706 5708 5710 5712 5714 5717 5720 5724 5728 5732 5736 5740 5744 5748 5753 5757 5761
5798 5794 5790 5785 5781 5777 5772 5768 5763 5759 5754 5749 5743 5738 5733 5728 5723 5719 5715 5711 5708 5706 5704 5703 5702 5702 5702 5703 5704 5706 5708 5710 5713 5716 5720 5723 5727 5731 5735 5739 5743 5747 5751
5794 5790 5786 5782 5778 5774 5770 5765 5761 5757 5752 5748 5743 5738 5733 5727 5723 5718 5714 5711 5708 5705 5703 5701 5700 5699 5699 5699 5700 5701 5703 5704 5707 5709 5712 5715 5719 5722 5726 5730 5734 5738 5742
5791 5787 5783 5779 5775 5771 5767 5763 5758 5754 5750 5746 5742 5737 5732 5727 5723 5718 5714 5711 5707 5704 5702 5700 5699 5697 5697 5696 5697 5697 5698 5699 5701 5703 5705 5708 5711 5714 5718 5721 5724 5728 5733
5786 5782 5779 5775 5771 5767 5763 5759 5755 5751 5747 5743 5739 5735 5731 5727 5722 5718 5714 5710 5707 5704 5701 5699 5697 5696 5694 5694 5693 5693 5693 5694 5695 5697 5699 5701 5703 5706 5709 5712 5716 5719 5723
5781 5777 5774 5770 5767 5763 5759 5755 5752 5748 5744 5740 5736 5733 5729 5725 5721 5717 5713 5709 5706 5703 5700 5698 5696 5694 5693 5691 5690 5690 5690 5690 5690 5692 5693 5694 5696 5699 5701 5704 5708 5711 5715
5775 5772 5768 5765 5761 5758 5754 5751 5747 5743 5739 5736 5733 5729 5726 5722 5719 5715 5711 5708 5705 5702 5699 5696 5694 5693 5691 5689 5688 5687 5686 5686 5686 5687 5687 5689 5690 5692 5695 5697 5700 5704 5707
5769 5765 5762 5759 5756 5752 5749 5746 5742 5738 5735 5731 5727 5724 5721 5718 5715 5712 5708 5705 5702 5699 5697 5694 5692 5690 5688 5687 5685 5684 5683 5682 5682 5682 5682 5683 5685 5687 5688 5691 5694 5697 5700
5762 5759 5756 5752 5749 5746 5743 5740 5737 5734 5729 5726 5722 5719 5716 5713 5710 5707 5704 5702 5699 5696 5694 5691 5689 5687 5685 5683 5682 5680 5679 5678 5678 5677 5678 5678 5680 5681 5683 5685 5688 5690 5694
5755 5752 5748 5745 5742 5739 5736 5733 5730 5727 5724 5720 5717 5713 5710 5707 5704 5701 5699 5697 5694 5692 5689 5687 5685 5683 5681 5679 5678 5676 5675 5675 5674 5674 5674 5674 5675 5676 5678 5680 5682 5685 5688
5747 5744 5741 5738 5735 5732 5728 5725 5722 5719 5716 5713 5710 5706 5703 5700 5697 5694 5692 5690 5688 5686 5684 5682 5680 5678 5676 5675 5674 5672 5671 5670 5670 5670 5670 5670 5670 5672 5673 5675 5677 5679 5682
5739 5736 5733 5730 5727 5724 5720 5717 5714 5711 5707 5704 5701 5698 5695 5692 5690 5687 5684 5681 5679 5678 5676 5675 5673 5672 5671 5669 5668 5667 5666 5666 5665 5665 5665 5665 5666 5667 5668 5670 5671 5673 5676
5730 5727 5724 5721 5718 5715 5711 5708 5705 5701 5698 5695 5691 5688 5685 5682 5680 5677 5675 5672 5670 5668 5666 5665 5664 5664 5663 5662 5662 5661 5660 5660 5660 5660 5660 5660 5661 5661 5662 5664 5666 5668 5670
5721 5718 5715 5711 5708 5705 5701 5698 5695 5691 5687 5684 5681 5677 5674 5671 5668 5665 5663 5660 5658 5657 5656 5654 5654 5653 5653 5653 5653 5653 5652 5652 5653 5653 5653 5654 5654 5655 5656 5658 5660 5662 5664
5710 5707 5704 5701 5698 5694 5691 5687 5683 5679 5675 5672 5668 5664 5661 5657 5654 5651 5649 5646 5644 5643 5642 5641 5641 5641 5640 5640 5641 5642 5642 5643 5643 5644 5645 5646 5647 5648 5649 5651 5652 5654 5657
5699 5696 5693 5690 5686 5683 5679 5675 5670 5666 5662 5658 5654 5650 5646 5642 5638 5635 5632 5630 5628 5626 5625 5624 5625 5625 5625 5626 5627 5628 5630 5631 5632 5634 5635 5637 5638 5640 5641 5643 5645 5647 5649
5688 5685 5681 5678 5674 5670 5666 5661 5657 5652 5647 5643 5638 5633 5629 5625 5621 5617 5614 5611 5609 5607 5606 5605 5605 5606 5608 5609 5611 5613 5615 5617 5619 5621 5623 5625 5627 5630 5632 5634 5637 5639 5641
5676 5672 5669 5665 5660 5656 5651 5646 5641 5636 5631 5625 5620 5615 5610 5606 5601 5597 5594 5590 5587 5585 5584 5583 5584 5585 5587 5589 5592 5595 5598 5601 5604 5606 5609 5612 5615 5618 5621 5624 5627 5630 5632